Live-Position
3D-Globus wird geladen...
Über OneWeb SL0056
Group: 3 satellites
Beschreibung wird geladen...
Nächste Überflüge
Passes for default location (London). Set your location on the main map for personalized predictions.
Höhenverlauf
Loading altitude history...
No altitude history available
Zweizeiliger Elementsatz
1 45159U 20008AE 26105.60320739 .00000520 00000-0 14522-2 0 9991
2 45159 87.8838 48.7143 0001733 78.1163 282.0158 13.10371019299984
Epoch: 15. Apr. 2026 •
Age: 20 hours
Aktueller Status
Höhe 1226.2 km
Geschwindigkeit 7.25 km/s
Subsatellitenpunkt 39.27°N,
43.15°E
Startdatum 6. Feb. 2020
Alter 6.1 years
Typ internet
Startgruppe
Unknown Vehicle •
OneWeb Launch 2 •
34 satellites
OneWeb SL0013
45131
OneWeb SL0017 45132
OneWeb SL0020 45133
OneWeb SL0021 45134
OneWeb SL0022 45135
OneWeb SL0023 45136
OneWeb SL0024 45137
OneWeb SL0025 45138
OneWeb SL0026 45139
OneWeb SL0028 45140
OneWeb SL0032 45141
OneWeb SL0033 45142
OneWeb SL0035 45143
OneWeb SL0036 45144
OneWeb SL0038 45145
OneWeb SL0039 45146
OneWeb SL0040 45147
OneWeb SL0041 45148
OneWeb SL0043 45149
OneWeb SL0044 45150
...and 13 more
Technische Details
Klassifizierung Payload
Masse 148.00 kg
Trockenmasse 140.00 kg
Gesamtmasse 148.00 kg
Länge 1.30 m
Durchmesser 1.00 m
Spannweite 5.00 m
Form Trapezoid+2 pan
Hersteller ONEWUS
Bus-Typ ARROW
Phasenstatus In Orbit
Besitzer/Staat ONEWEB/UK
Most Searched
Loading...